Simultaneous Nadir Overpasses (SNOs) Predictions

Prediction of SNOs between FY3D and TERRA Satellite Orbit:

Table of predicted SNOs for the next 14.0 days since TLE Epoch: 8/1/2020
Index Date (FY3D) Time (FY3D) Lat,Lon (FY3D) SZA (FY3D ) Date (TERRA) Time (TERRA) Lat,Lon (TERRA) SZA (TERRA ) Distance(km) Time Diff (sec)
1 08/02/2020 13:01:19 68.98, -16.05 51.33 08/02/2020 13:02:16 68.97, -16.05 51.32 0.91 57
2 08/02/2020 13:52:00 -68.84, 151.46 128.80 08/02/2020 13:51:46 -68.86, 151.44 128.79 2.36 14
3 08/02/2020 14:42:32 68.11, -40.28 50.47 08/02/2020 14:41:23 68.19, -41.73 50.58 60.54 69
4 08/05/2020 05:17:42 68.97, 99.87 52.04 08/05/2020 05:18:45 68.97, 99.84 52.04 1.19 63
5 08/05/2020 06:08:24 -68.89, -92.69 128.04 08/05/2020 06:08:15 -68.87, -92.67 128.06 2.58 9
6 08/05/2020 06:58:59 68.33, 75.36 51.40 08/05/2020 06:57:48 68.42, 74.43 51.52 39.54 71
7 08/07/2020 21:34:04 68.97,-144.22 52.79 08/07/2020 21:35:13 68.98,-144.27 52.79 2.37 69
8 08/07/2020 22:24:46 -68.89, 23.22 127.30 08/07/2020 22:24:43 -68.87, 23.22 127.31 1.31 3
9 08/07/2020 23:15:25 68.54,-169.01 52.37 08/07/2020 23:14:13 68.59,-169.48 52.43 20.04 72
10 08/10/2020 13:50:29 69.08, -28.45 53.67 08/10/2020 13:51:41 69.04, -28.32 53.63 7.09 72
11 08/10/2020 14:41:09 -68.89, 139.13 126.52 08/10/2020 14:41:12 -68.88, 139.11 126.53 1.02 3
12 08/10/2020 15:31:52 68.76, -53.38 53.36 08/10/2020 15:30:39 68.77, -53.39 53.38 0.97 73
13 08/13/2020 06:06:56 69.30, 87.16 54.70 08/13/2020 06:08:07 69.21, 87.78 54.60 26.43 71
14 08/13/2020 06:57:32 -68.89,-104.96 125.71 08/13/2020 06:57:41 -68.89,-105.00 125.71 1.76 9
15 08/13/2020 07:48:15 68.76, 62.53 54.17 08/13/2020 07:47:08 68.77, 62.50 54.18 1.66 67
